Regional Weather Roundup
Issued by NWS Sioux Falls, SD

Home | Current Version | Previous Version | Text Only | Print | Product List | Glossary Off
Versions: 1 2 3 4 5 6 7 8 9 10 11 12 13 14 15 16 17 18 19 20 21 22 23 24 25 26 27 28 29 30 31 32 33 34 35 36 37 38 39 40 41 42 43 44 45 46 47 48 49 50

000
ASUS43 KFSD 210110
RWRFSD

WEATHER ROUNDUP FOR SE SOUTH DAKOTA/SW MINNESOTA/NW IOWA
NATIONAL WEATHER SERVICE SIOUX FALLS SD
800 PM CDT WED SEP 20 2017

NOTE: "FAIR" INDICATES FEW OR NO CLOUDS BELOW 12,000 FEET WITH NO
SIGNIFICANT WEATHER AND OR OBSTRUCTIONS TO VISIBILITY.


SDZ038>040-050-052>070-210200-
SOUTHEAST SOUTH DAKOTA

CITY           SKY/WX    TMP DP  RH WIND       PRES   REMARKS
BROOKINGS      CLEAR     63  46  54 S7        29.89R
CHAMBERLAIN    CLEAR     61  41  47 SE8       29.82S
HURON          CLEAR     64  47  53 SE9       29.82S
MADISON        FAIR      63  46  55 SE7       29.89R
MITCHELL       CLEAR     66  45  46 SE9       29.85R
SIOUX FALLS    CLEAR     65  46  50 CALM      29.88R
WINNER         FAIR      64  41  42 SE10      29.82S
YANKTON        CLEAR     66  49  54 SE5       29.89R
$$

MNZ071-072-080-081-089-090-097-098-210200-
SOUTHWEST MINNESOTA

CITY           SKY/WX    TMP DP  RH WIND       PRES   REMARKS
FAIRMONT       CLEAR     62  52  69 CALM      29.89R
JACKSON        PTCLDY    63  50  63 CALM      29.90R
LUVERNE        CLEAR     61  46  59 CALM      29.90R
MARSHALL       CLEAR     62  51  67 S3        29.89R
MONTEVIDEO     CLEAR     61  48  63 S5        29.88R
PIPESTONE      CLEAR     61  50  67 CALM      29.90R
REDWOOD FALLS  CLEAR     65  48  54 E5        29.88R
TRACY          CLEAR     61  52  72 CALM      29.89R
WORTHINGTON    CLEAR     61  49  64 S3        29.90R HAZE
$$

IAZ001>003-012>014-020>022-031-032-NEZ013-014-SDZ071-210200-
NORTHWEST IOWA

CITY           SKY/WX    TMP DP  RH WIND       PRES   REMARKS
CHEROKEE       CLEAR     61  52  72 CALM      29.88S
DENISON        CLEAR     63  57  82 CALM      29.89R
ESTHERVILLE    CLEAR     60  54  80 CALM      29.88R
LE MARS        CLEAR     61  55  82 CALM      29.88R
ORANGE CITY    CLEAR     68  52  56 CALM      29.89R
SHELDON        CLEAR     57  55  94 CALM      29.87S
SIOUX CITY     CLEAR     61  54  77 CALM      29.88R
SPENCER        CLEAR     62  52  69 E3        29.88S
STORM LAKE     CLEAR     64  48  55 N3        29.88S
$$

ABBREVIATIONS USED IN REMARKS
   TC - TEMPERATURE IN CELSIUS
  WCI - WIND CHILL INDEX
   HX - HEAT INDEX
  VSB - VISIBILITY





USA.gov is the U.S. government's official web portal to all federal, state and local government web resources and services.